Location: Haut Kerinec
(48.0623°N, 4.4081°W)
Time: 21:17:22
(UTC+00:00)

STARLINK-1254 - Pass Details

Date: 10 October 2020
Orbit: 548 x 551 km, 53.0° (Epoch: 26 October)

Event Time Altitude Azimuth Distance (km) Brightness Sun altitude
Rises 19:00:51 0° 224° (SW) 2,704 7.7 -14.6°
Reaches altitude 10° 19:03:07 10° 220° (SW) 1,814 6.7 -15.0°
Maximum altitude 19:07:06 50° 144° (SE) 702 3.8 -15.7°
Enters shadow 19:08:44 31° 87° (E) 980 4.3 -16.0°
